Regional Weather Roundup
Issued by NWS Upton, NY

Current Version | Previous Version | Text Only | Print | Product List | Glossary On
Versions: 1 2 3 4 5 6 7 8 9 10 11 12 13 14 15 16 17 18 19 20 21 22 23 24 25 26 27
000 ASUS41 KOKX 171809 RWROKX REGIONAL WEATHER ROUNDUP NATIONAL WEATHER SERVICE NEW YORK NY 200 PM EDT TUE OCT 17 2017 NOTE: "FAIR" INDICATES FEW OR NO CLOUDS BELOW 12,000 FEET WITH NO SIGNIFICANT WEATHER AND/OR OBSTRUCTIONS TO VISIBILITY. NYZ071-072-176-178-NJZ106-104-171900- NEW YORK CITY METRO AREA CITY SKY/WX TMP DP RH WIND PRES REMARKS Central Park SUNNY 56 29 35 VRB5 30.31F Bronx Bot Gard N/A 57 30 35 SW12 30.31F LaGuardia APRT SUNNY 58 29 33 CALM 30.29F Kennedy INTL MOSUNNY 58 29 33 W6 30.30F Breezy Point N/A 52 N/A N/A S6 N/A Newark/Liberty SUNNY 59 31 34 CALM 30.29F Teterboro SUNNY 57 30 35 NW5 30.28F $$ NYZ177-179-078>081-171900- LONG ISLAND NEW YORK CITY SKY/WX TMP DP RH WIND PRES REMARKS Jones Beach N/A 54 N/A N/A NE2 N/A Matinecock PT N/A 52 N/A N/A SW6 N/A Farmingdale SUNNY 55 31 39 VRB3 30.29F MacArthur/ISP SUNNY 55 31 39 NW8 30.29F Shirley SUNNY 59 35 40 NW10 30.29F Mt Sinai Harb N/A N/A N/A N/A NW2 N/A Westhampton SUNNY 55 31 39 NW7 30.30F East Hampton FAIR 52 32 45 CALM 30.28S Montauk N/A 54 31 41 VRB5 30.29F $$ NYZ052-065-067-171900- HUDSON VALLEY CITY SKY/WX TMP DP RH WIND PRES REMARKS White Plains SUNNY 55 30 38 VRB3 30.28F Larchmont Harb N/A 52 N/A N/A SE6 N/A Croton On Huds N/A 55 N/A N/A S3 N/A Newburgh SUNNY 54 32 43 CALM 30.29F Montgomery SUNNY 56 36 47 VRB5 30.26F Poughkeepsie SUNNY 54 33 45 CALM 30.27F Albany SUNNY 53 29 39 S5 30.26F $$ NJZ001-105-106-008-010-013-015-019>022-104-171900- NEW JERSEY CITY SKY/WX TMP DP RH WIND PRES REMARKS Newark/Liberty SUNNY 59 31 34 CALM 30.29F Teterboro SUNNY 57 30 35 NW5 30.28F Caldwell SUNNY 57 32 38 W7 30.29F Somerville SUNNY 60 36 40 NW7 30.28F Linden FAIR 57 31 36 CALM 30.30F Perth Amboy NOT AVBL Sussex SUNNY 57 35 43 VRB7 30.27F Andover N/A 57 31 37 CALM 30.28F Trenton SUNNY 58 35 42 W6 30.29F Millville SUNNY 60 37 42 VRB7 30.31F Atlantic City SUNNY 59 36 42 N5 30.30F Wrightstown SUNNY 57 34 41 NW7 30.29F Toms River N/A 57 34 41 W5 30.30F Belmar SUNNY 58 32 37 NW7 30.31F $$ PAZ047>061-062-071-171900- EASTERN PENNSYLVANIA CITY SKY/WX TMP DP RH WIND PRES REMARKS Philadelphia SUNNY 58 31 35 NW7 30.31F Allentown SUNNY 58 33 39 VRB3 30.30F Scranton SUNNY 55 34 45 VRB5 30.28F $$ CTZ002-004>006-009-010-012-RIZ004-006-007-MAZ004-011-015-171900- SOUTHERN NEW ENGLAND IN CT CITY SKY/WX TMP DP RH WIND PRES REMARKS Bradley INTL SUNNY 56 26 31 NW5 30.26F Hartford SUNNY 56 27 32 N6 30.27F Danbury SUNNY 57 30 35 W7 30.28F Wtrbury/Oxford SUNNY 54 30 40 VRB3 30.27F Norwalk Harbor N/A 50 N/A N/A S9 N/A Bridgeport SUNNY 55 33 43 S8 30.28F Meriden SUNNY 56 28 34 NE5 30.27F New Haven SUNNY 55 31 39 SW7 30.28F Chester FAIR 57 27 30 CALM 30.27F Groton SUNNY 57 31 37 VRB3 30.26F Wilimantic SUNNY 57 25 29 W5 30.26F IN RI CITY SKY/WX TMP DP RH WIND PRES REMARKS Providence MOSUNNY 57 32 38 CALM 30.27F Block Island SUNNY 53 35 50 N6 30.28S Westerly SUNNY 57 30 35 CALM 30.27F IN MA CITY SKY/WX TMP DP RH WIND PRES REMARKS Boston MOSUNNY 56 29 35 NW5 30.25F Worcester SUNNY 51 24 34 VRB3 30.24F Westfield SUNNY 55 27 34 CALM 30.25F Provincetown SUNNY 53 36 52 NW8 30.26F Nantucket SUNNY 54 37 52 N10G20 30.25F $$ ANZ330-335-338-340-345-350-353-355-171900- COASTAL MARINE OBSERVATIONS STATION/POSITION TIME SKY/WX TEMP WIND PRES VSBY WAVE AIR SEA DIR/SP/G HT/PER (UTC) (F) (DEG/KT/KT) (MB) (MI) (FT/S) NY HARB ENTRANCE 1650 51 65 340/ 6/ 10 1026.2 2/ 4 20 S FIRE ISLAND 1650 50 64 10/ 8/ 12 1026.4 3/ 6 GREAT SOUTH BAY 1715 53 62 360/ 6/ 8 N/A 15 E BARNEGAT LI 1730 66 N/A 4/ 6 HUDSON CANYON 1650 53 65 20/ 14/ 17 1025.1 6/ 7 KINGS POINT 1748 54 65 200/ 2/ 4 1026.6 EXECUTION ROCKS 1730 54 190/ 2/ 6 N/A WESTERN LI SOUND 1649 52 210/ 4/ 8 N/A 0 CENTRAL LI SOUND NOT AVBL EASTERN LI SOUND NOT AVBL ROBBINS REEF 1748 52 120/ 4/ 6 1026.5 $$ >>>>>>>>>>>>>>>>>>>>>>>>>>>> KEY <<<<<<<<<<<<<<<<<<<<<<<<<<< > < > SKY/WX - Sky Condition/Present Weather < > TMP - Temperature in Fahrenheit < > DP - Dew Point in Fahrenheit < > RH - Relative Humidity in Percent < > WIND - Direction (from) and Speed in MPH < > PRES - Mean Sea Level Pressure (inches of Hg) < > WCI - Wind Chill Index < > VSB - VISIBILITY IN MILES < > HX - HEAT INDEX < > TC - TEMPERATURE IN CELSIUS < > VRB - VARIABLE WIND DIRECTION < > < >>>>>>>>>>>>>>>>>>>>>>>>>>>> KEY <<<<<<<<<<<<<<<<<<<<<<<<<<<

USA.gov is the U.S. government's official web portal to all federal, state and local government web resources and services.